Powrót do katalogu

STARLINK-5546

AktywnyŁącznośćVLEO
NORAD 55632·PAYLOAD·🇺🇸 United States

Wystrzelony Feb 17, 2023 z Vandenberg Space Force Base

Loading…

Następne Przeloty (najbliższe 24 godziny)

TLE

ŚwieżeSource: CelesTrak SupGP

Epoka: Sep 14, 2026, 20:33 UTC

1 55632C 23021E   26257.85673611  .00013317  00000+0  11163-2 0  2573
2 55632  70.0003  87.5068 0002978 278.6121  71.8114 14.98313847    11

Śledź STARLINK-5546 w czasie rzeczywistym z AllMySat

Download on the App Store